Location: Bramevaque
(42.9773°N, 0.5757°E)
Time: 21:12:38
(UTC+00:00)

ALOS 2 - Pass Details

Date: 15 May 2026
Orbit: 630 x 632 km, 97.9° (Epoch: 8 June)

Event Time Altitude Azimuth Distance (km) Brightness Sun altitude
Exits shadow 22:53:59 38° 55° (NE) 974 3.6 -26.5°
Drops below altitude 10° 22:57:37 10° 2° (N) 2,023 6.1 -26.6°
Sets 22:59:56 0° 355° (N) 2,935 7.3 -26.7°
